Regional Weather Roundup
Issued by NWS

Home | Current Version | Previous Version | Text Only | Print | Product List | Glossary On
Versions: 1 2 3 4 5 6 7 8 9 10 11 12 13 14 15 16 17 18 19 20 21 22 23 24 25 26 27 28 29 30 31 32 33 34 35 36 37 38 39 40 41 42 43 44 45 46 47 48 49 50
000
ASUS43 KDTX 310010
RWRMI
MICHIGAN HOURLY REGIONAL WEATHER ROUNDUP
NATIONAL WEATHER SERVICE DETROIT/PONTIAC MI
800 PM EDT TUE AUG 30 2016

NOTE: "FAIR" INDICATES FEW OR NO CLOUDS BELOW 12,000 FEET WITH NO
SIGNIFICANT WEATHER AND/OR OBSTRUCTION TO VISIBILITY.

MIZ047>049-052>055-059>063-066>070-074>076-081>083-310100-
SOUTHEAST LOWER MICHIGAN

CITY           SKY/WX    TMP DP  RH WIND       PRES   REMARKS
ADRIAN         LGT RAIN  75  69  81 W9        30.06S
6HR MIN TEMP:  75; 6HR MAX TEMP:  83; 6HR PCP: TRACE;

ALMA           CLOUDY    73  71  93 SW10      30.03F
ANN ARBOR      PTCLDY    75  73  93 S3        30.04F
BAD AXE        CLOUDY    76  69  79 W6        30.03S
6HR MIN TEMP:  76; 6HR MAX TEMP:  83;

CARO           CLOUDY    73  72  96 SW3       30.02F
DETROIT CITY   CLOUDY    77  61  57 S6        30.03F
6HR MIN TEMP:  77; 6HR MAX TEMP:  82;

DETROIT        MOCLDY    78  67  68 S5        30.04F
6HR MIN TEMP:  78; 6HR MAX TEMP:  82;

FLINT          CLOUDY    76  71  85 SW3       30.03F
6HR MIN TEMP:  70; 6HR MAX TEMP:  79; 6HR PCP:  0.55;

GROSSE ILE     CLOUDY    75  67  77 CALM      30.03S
6HR MIN TEMP:  75; 6HR MAX TEMP:  80;

HILLSDALE      LGT RAIN  70  68  93 S5        30.07F
6HR MIN TEMP:  51; 6HR MAX TEMP:  84; 6HR PCP:  0.10;

HOWELL         CLOUDY    77  70  79 SW3       30.04F
6HR MIN TEMP:  77; 6HR MAX TEMP:  82;


CITY           SKY/WX    TMP DP  RH WIND       PRES   REMARKS
JACKSON        CLOUDY    77  72  84 S7        30.05F
6HR MIN TEMP:  77; 6HR MAX TEMP:  80;

LAMBERTVILLE   PTCLDY    77  71  82 CALM      30.05S
6HR MIN TEMP:  77; 6HR MAX TEMP:  85;

LANSING        CLOUDY    72  67  84 NW3       30.05S
6HR MIN TEMP:  72; 6HR MAX TEMP:  83; 6HR PCP:  0.05;

LAPEER         FAIR      75  71  88 CALM      30.04S
6HR MIN TEMP:  75; 6HR MAX TEMP:  81;

MASON          CLOUDY    76  67  74 CALM      30.04F
MONROE         MOCLDY    74  70  88 CALM      30.03F
MT. CLEMENS    CLOUDY    74  62  67 S5        30.01F
6HR MIN TEMP:  74; 6HR MAX TEMP:  82;

PONTIAC        CLOUDY    77  67  71 S6        30.03F
6HR MIN TEMP:  77; 6HR MAX TEMP:  81;

PORT HOPE        N/A     75  68  78 N6        30.01S
6HR MIN TEMP:  74; 6HR MAX TEMP:  84;

PORT HURON     CLOUDY    70  66  88 CALM      30.03F
TRI CITIES     CLOUDY    76  69  79 SW8       30.02F
6HR MIN TEMP:  76; 6HR MAX TEMP:  83; 6HR PCP: TRACE;

MIDLAND        FAIR      76  68  75 S5        30.01S
6HR MIN TEMP:  76; 6HR MAX TEMP:  84;

TROY           CLOUDY    81  60  48 SW3       30.05F
SAGINAW HB     CLOUDY    77  68  73 SW6       30.01F
$$
MIZ043>046-050>051-056>058-064>065-071>073-077>080-310100-
SOUTHWEST LOWER MICHIGAN

CITY           SKY/WX    TMP DP  RH WIND       PRES   REMARKS
BATTLE CREEK   CLOUDY    75  71  87 SW5       30.05F
6HR MIN TEMP:  75; 6HR MAX TEMP:  80;

BENTON HARBOR  CLOUDY    77  71  82 CALM      30.03F
6HR MIN TEMP:  77; 6HR MAX TEMP:  83;

BIG RAPIDS     PTCLDY    77  71  82 W5        30.03F
6HR MIN TEMP:  77; 6HR MAX TEMP:  84;

COLDWATER      RAIN      69  69  99 SE7       30.08R
6HR MIN TEMP:  69; 6HR MAX TEMP:  83;

FREMONT        CLOUDY    75  71  87 W3        30.03S
6HR MIN TEMP:  75; 6HR MAX TEMP:  82;

HOLLAND        CLOUDY    75  69  81 NW6       30.05F
6HR MIN TEMP:  75; 6HR MAX TEMP:  82;

GRAND RAPIDS   CLOUDY    76  69  79 W8        30.04F
6HR MIN TEMP:  73; 6HR MAX TEMP:  81; 6HR PCP:  0.02;

IONIA          FAIR      73  67  81 CALM      30.03F
6HR MIN TEMP:  73; 6HR MAX TEMP:  81;

KALAMAZOO      CLOUDY    78  69  73 W3        30.04F
6HR MIN TEMP:  76; 6HR MAX TEMP:  81;

LUDINGTON      CLOUDY    73  72  95 SW6       30.02F FOG
6HR MIN TEMP:  73; 6HR MAX TEMP:  78;

MARSHALL       CLOUDY    77  74  90 S5        30.05S
6HR MIN TEMP:  77; 6HR MAX TEMP:  82;

MOUNT PLEASANT CLOUDY    78  70  78 SW5       30.01F
6HR MIN TEMP:  77; 6HR MAX TEMP:  86; 6HR PCP:  0.03;

MUSKEGON       CLOUDY    76  72  87 SW5       30.03F
6HR MIN TEMP:  76; 6HR MAX TEMP:  82;

SOUTH HAVEN    MOCLDY    77  73  90 CALM      30.03F
$$
MIZ016>042-310100-
NORTHERN LOWER MICHIGAN

CITY           SKY/WX    TMP DP  RH WIND       PRES   REMARKS
ALPENA         PTCLDY    72  68  87 CALM      30.01F
6HR MIN TEMP:  71; 6HR MAX TEMP:  84; 6HR PCP:  0.69;

BEAVER ISLAND  CLOUDY    70  66  86 N6        30.04R
6HR MIN TEMP:  70; 6HR MAX TEMP:  80;

BELLAIRE       CLEAR     75  66  74 CALM      30.01S
6HR MIN TEMP:  75; 6HR MAX TEMP:  83;

CADILLAC       PTCLDY    76  68  77 W3        30.04S
CHARLEVOIX     MOCLDY    74  70  88 NW6       30.05S
6HR MIN TEMP:  74; 6HR MAX TEMP:  79;

FRANKFORT      CLOUDY    74  70  88 SW3       30.02F
GAYLORD        CLEAR     75  61  61 VRB6      30.04S
6HR MIN TEMP:  75; 6HR MAX TEMP:  85;

GRAYLING       MOCLDY    77  69  76 NW8       30.03S
6HR MIN TEMP:  77; 6HR MAX TEMP:  86;

HARBOR SPRINGS MOCLDY    73  68  84 W3        30.02R
HOUGHTON LAKE  PTCLDY    76  69  79 CALM      30.02F
6HR MIN TEMP:  71; 6HR MAX TEMP:  86; 6HR PCP:  0.50;

MANISTEE       PTCLDY    74  71  91 W5        30.02S
OSCODA         CLOUDY    69  67  94 S6        30.01F
6HR MIN TEMP:  68; 6HR MAX TEMP:  88; 6HR PCP:  0.29;

PELLSTON       MOCLDY    74  67  78 W5        30.02S
6HR MIN TEMP:  74; 6HR MAX TEMP:  83;

ROGERS CITY    PTCLDY    73  66  79 N7        30.01F
TRAVERSE CITY  MOCLDY    78  70  76 NW8       30.00S
6HR MIN TEMP:  78; 6HR MAX TEMP:  87;

$$
MIZ007>008-015-310100-
EASTERN UPPER MICHIGAN

CITY           SKY/WX    TMP DP  RH WIND       PRES   REMARKS
KINROSS        CLOUDY    66  60  81 NW10      30.03S
6HR MIN TEMP:  66; 6HR MAX TEMP:  80;

MACKINAC ISLAN CLOUDY    70  64  80 N7        30.02S
6HR MIN TEMP:  70; 6HR MAX TEMP:  78;

NEWBERRY       CLOUDY    65  56  74 NW9       30.06S
6HR MIN TEMP:  65; 6HR MAX TEMP:  79;

S. S. MARIE    CLEAR     65  60  84 NW10      30.02F
6HR MIN TEMP:  65; 6HR MAX TEMP:  79;

MUNISING         N/A     66  58  75 N8        30.07F
6HR MIN TEMP:  66; 6HR MAX TEMP:  72;

$$
MIZ004>006-011>014-085-310100-
CENTRAL UPPER MICHIGAN

CITY           SKY/WX    TMP DP  RH WIND       PRES   REMARKS
MANISTIQUE     CLEAR     68  59  72 N10       30.05S
6HR MIN TEMP:  68; 6HR MAX TEMP:  81;

ESCANABA       MOCLDY    72  64  76 VRB6      30.04S
6HR MIN TEMP:  72; 6HR MAX TEMP:  81;

MENOMINEE      CLOUDY   N/A N/A N/A MISG      30.03S
SAWYER-GWINN   CLEAR     64  55  72 NE9       30.09S
$$
MIZ001>003-009>011-084-310100-
WESTERN UPPER MICHIGAN

CITY           SKY/WX    TMP DP  RH WIND       PRES   REMARKS
IRON MOUNTAIN  CLEAR     74  57  55 NW8       30.06S
6HR MIN TEMP:  74; 6HR MAX TEMP:  79;

HOUGHTON       CLEAR     66  52  60 NW10      30.09F
6HR MIN TEMP:  66; 6HR MAX TEMP:  72;

COPPER HARBOR    N/A     67  55  65 NW7       30.07F
6HR MIN TEMP:  67; 6HR MAX TEMP:  71;

IRONWOOD       CLEAR     68  53  58 CALM      30.13F
6HR MIN TEMP:  68; 6HR MAX TEMP:  72;

$$

ABBREVIATIONS USED IN REMARKS
   TC - TEMPERATURE IN CELSIUS
  WCI - WIND CHILL INDEX
   HX - HEAT INDEX
  VSB - VISIBILITY





USA.gov is the U.S. government's official web portal to all federal, state and local government web resources and services.